Location: ????????
(56.1167°N, 38.6333°E)
Time: 19:58:35
(UTC+00:00)

ARIANE 6 FM1 Upper Stage - Pass Details

Date: 18 November 2025
Orbit: 522 x 611 km, 62.0° (Epoch: 14 December)

Event Time Altitude Azimuth Distance (km) Brightness Sun altitude
Rises 16:19:51 0° 292° (WNW) 2,660 7.3 -25.6°
Reaches altitude 10° 16:22:10 10° 301° (WNW) 1,769 6.0 -25.9°
Enters shadow 16:24:40 30° 331° (NNW) 974 4.1 -26.3°
